TimeEDT,TemperatureF,Dew PointF,Humidity,Sea Level PressureIn,VisibilityMPH,Wind Direction,Wind SpeedMPH,Gust SpeedMPH,PrecipitationIn,Events,Conditions,WindDirDegrees,DateUTC
12:53 AM,55.0,52.0,89,30.04,6.0,WSW,3.5,-,N/A,,Clear,240,2013-10-03 04:53:00
1:53 AM,53.1,51.1,93,30.06,6.0,Calm,Calm,-,N/A,,Clear,0,2013-10-03 05:53:00
2:33 AM,51.8,48.2,88,30.06,2.0,Calm,Calm,-,N/A,,Clear,0,2013-10-03 06:33:00
2:42 AM,53.6,50.0,88,30.06,6.0,Calm,Calm,-,N/A,,Clear,0,2013-10-03 06:42:00
2:53 AM,52.0,48.9,89,30.06,6.0,SSW,3.5,-,N/A,,Clear,210,2013-10-03 06:53:00
3:53 AM,50.0,46.9,89,30.07,5.0,Calm,Calm,-,N/A,,Clear,0,2013-10-03 07:53:00
4:53 AM,48.0,45.0,89,30.08,6.0,Calm,Calm,-,N/A,,Clear,0,2013-10-03 08:53:00
5:53 AM,46.9,44.1,90,30.09,3.0,Calm,Calm,-,N/A,,Clear,0,2013-10-03 09:53:00
6:53 AM,46.9,44.1,90,30.12,8.0,SW,3.5,-,N/A,,Clear,230,2013-10-03 10:53:00
7:53 AM,51.1,46.9,86,30.13,8.0,Calm,Calm,-,N/A,,Clear,0,2013-10-03 11:53:00
8:53 AM,59.0,52.0,78,30.14,10.0,Calm,Calm,-,N/A,,Clear,0,2013-10-03 12:53:00
9:53 AM,64.9,53.1,65,30.14,10.0,Calm,Calm,-,N/A,,Clear,0,2013-10-03 13:53:00
10:53 AM,70.0,48.0,46,30.14,10.0,WNW,4.6,-,N/A,,Clear,290,2013-10-03 14:53:00
11:53 AM,71.1,50.0,47,30.12,10.0,Variable,5.8,-,N/A,,Clear,0,2013-10-03 15:53:00
12:53 PM,73.0,51.1,46,30.10,10.0,WNW,3.5,-,0.00,,Clear,300,2013-10-03 16:53:00
1:53 PM,73.9,50.0,43,30.08,10.0,SW,4.6,-,N/A,,Clear,230,2013-10-03 17:53:00
2:53 PM,73.9,48.0,40,30.07,10.0,Variable,4.6,-,N/A,,Clear,0,2013-10-03 18:53:00
3:53 PM,73.9,46.0,37,30.06,10.0,WSW,5.8,-,N/A,,Clear,240,2013-10-03 19:53:00
4:53 PM,72.0,52.0,49,30.06,10.0,Calm,Calm,-,N/A,,Clear,0,2013-10-03 20:53:00
5:53 PM,68.0,55.9,65,30.07,10.0,SW,3.5,-,N/A,,Clear,220,2013-10-03 21:53:00
6:53 PM,64.0,55.9,75,30.07,10.0,SW,3.5,-,N/A,,Clear,220,2013-10-03 22:53:00
7:53 PM,62.1,55.9,80,30.07,10.0,Calm,Calm,-,N/A,,Clear,0,2013-10-03 23:53:00
8:53 PM,61.0,55.0,81,30.08,10.0,Calm,Calm,-,N/A,,Clear,0,2013-10-04 00:53:00
9:53 PM,59.0,55.0,87,30.09,10.0,SW,3.5,-,N/A,,Clear,230,2013-10-04 01:53:00
10:53 PM,57.9,54.0,87,30.10,10.0,Calm,Calm,-,N/A,,Clear,0,2013-10-04 02:53:00